Вернуться в каталог

STARLINK-30478

АктивенСвязьVLEO
NORAD 57911·PAYLOAD·🇺🇸 United States

Запущен Sep 20, 2023 с Cape Canaveral Space Force Station

Loading…

Ближайшие Пролёты (ближайшие 24 часа)

TLE

СвежийSource: CelesTrak SupGP

Эпоха: Sep 14, 2026, 20:58 UTC

1 57911C 23146W   26257.87409722 -.00088432  00000+0 -32025-2 0  2577
2 57911  43.0018 325.5874 0001534 266.1449  28.9722 15.27626938    10

Отслеживайте STARLINK-30478 в реальном времени с AllMySat

Download on the App Store